DW4238 Weather Reports


time (UTC)temp
C
wind
direction
speed
KPH
gust
KPH
rain 1hr
cm
rain 24hr
cm
rain mn
cm
humidity
%
barometer
mb
20260903163037 31 221 6.4 16.1 0.00 3.05 0.00 76 1013.7
20260903162545 31 184 11.3 22.5 0.00 3.05 0.00 76 1013.8
20260903161614 30 161 9.7 20.9 0.00 3.05 0.00 78 1013.8
20260903161119 30 215 12.9 29.0 0.00 3.05 0.00 77 1013.8
20260903160630 30 192 20.9 29.0 0.00 3.05 0.00 77 1013.6
20260903160050 30 184 14.5 20.9 0.00 3.05 0.00 78 1013.7
20260903155601 30 224 12.9 19.3 0.00 3.05 0.00 81 1013.7
20260903154624 30 209 16.1 24.1 0.00 3.05 0.00 81 1013.8
20260903154039 30 200 12.9 22.5 0.00 3.05 0.00 82 1013.7
20260903153544 29 189 17.7 20.9 0.00 3.05 0.00 83 1013.7
20260903153155 29 173 12.9 19.3 0.00 3.05 0.00 85 1013.8
20260903152544 29 184 12.9 20.9 0.00 3.05 0.00 86 1013.8
20260903151606 28 178 16.1 22.5 0.00 3.05 0.00 86 1013.8
20260903151112 28 161 8.0 22.5 0.00 3.05 0.00 87 1013.7
20260903150141 28 176 14.5 20.9 0.00 3.05 0.00 88 1013.6
20260903145625 28 193 11.3 22.5 0.00 3.05 0.00 88 1013.7
20260903145134 28 205 16.1 20.9 0.00 3.05 0.00 89 1013.5
20260903144545 28 196 9.7 17.7 0.00 3.05 0.00 90 1013.4
20260903144048 28 197 12.9 17.7 0.00 3.05 0.00 90 1013.4
20260903143111 28 198 9.7 22.5 0.00 3.05 0.00 91 1013.5
20260903142602 27 219 12.9 16.1 0.00 3.05 0.00 91 1013.5
20260903141604 27 186 8.0 16.1 0.00 3.05 0.00 92 1013.5
20260903141108 27 180 6.4 12.9 0.00 3.05 0.00 93 1013.4
20260903140619 27 160 6.4 12.9 0.00 3.05 0.00 93 1013.5
20260903140050 27 188 8.0 14.5 0.00 3.05 0.00 93 1013.4
20260903135554 27 191 8.0 12.9 0.00 3.05 0.00 93 1013.4
20260903134556 27 190 4.8 9.7 0.00 3.05 0.00 93 1013.3
20260903134108 27 192 1.6 11.3 0.00 3.05 0.00 93 1013.4
20260903133609 27 155 6.4 14.5 0.00 3.05 0.00 93 1013.2
20260903133040 27 186 8.0 14.5 0.00 3.05 0.00 93 1013.2
20260903132548 27 188 9.7 14.5 0.00 3.05 0.00 93 1013.1
20260903131610 27 188 8.0 11.3 0.00 3.05 0.00 94 1013.1
20260903131055 26 191 8.0 14.5 0.00 3.05 0.00 94 1013.0
20260903130604 26 198 9.7 14.5 0.00 3.05 0.00 94 1012.9
20260903130151 26 186 9.7 12.9 0.00 3.05 0.00 94 1012.9
20260903125538 26 196 9.7 16.1 0.00 3.05 0.00 94 1012.8
20260903125150 26 201 9.7 14.5 0.00 3.05 0.00 94 1012.7
20260903124553 26 197 11.3 14.5 0.00 3.05 0.00 94 1012.6
20260903124050 26 200 9.7 12.9 0.00 3.05 0.00 94 1012.7
20260903123049 26 178 6.4 9.7 0.00 3.05 0.00 94 1012.7
20260903122601 26 186 6.4 11.3 0.00 3.05 0.00 94 1012.7
20260903121542 26 182 6.4 9.7 0.00 3.05 0.00 94 1012.6
20260903121046 26 165 4.8 11.3 0.00 3.05 0.00 94 1012.5
20260903120116 26 171 4.8 11.3 0.00 3.05 0.00 94 1012.6
20260903115621 26 166 8.0 11.3 0.00 3.05 0.00 94 1012.5
20260903115132 26 188 8.0 11.3 0.00 3.05 0.00 94 1012.5
20260903114553 26 170 6.4 9.7 0.00 3.05 0.00 94 1012.4
20260903114045 26 161 8.0 9.7 0.00 3.05 0.00 94 1012.4
20260903113106 26 178 8.0 12.9 0.00 3.05 0.00 94 1012.4
20260903112612 26 178 8.0 12.9 0.00 3.05 0.00 94 1012.3
20260903112122 26 166 9.7 12.9 0.00 3.05 0.00 94 1012.4
20260903111554 26 171 8.0 9.7 0.00 3.05 0.00 94 1012.3
20260903111055 26 169 6.4 9.7 0.00 3.05 0.00 94 1012.3
20260903110124 26 165 9.7 12.9 0.00 3.05 0.00 94 1012.3
20260903105608 26 183 6.4 8.0 0.00 3.05 0.00 94 1012.3
20260903104628 26 184 4.8 9.7 0.00 3.05 0.00 94 1012.2
20260903104039 26 186 6.4 12.9 0.00 3.05 0.00 94 1012.2
20260903103106 26 180 6.4 12.9 0.00 3.05 0.00 94 1012.2
20260903102618 26 190 6.4 11.3 0.00 3.05 0.00 94 1012.2
20260903102122 26 187 8.0 14.5 0.00 3.05 0.00 94 1012.2
20260903101550 26 181 6.4 11.3 0.00 3.05 0.00 94 1012.2
20260903101102 26 185 8.0 11.3 0.00 3.05 0.00 94 1012.3
20260903100103 26 182 6.4 11.3 0.00 3.05 0.00 94 1012.3
20260903095608 26 187 9.7 11.3 0.00 3.05 0.00 94 1012.2
20260903095120 26 178 4.8 8.0 0.00 3.05 0.00 94 1012.3
20260903094042 26 179 3.2 6.4 0.00 3.05 0.00 94 1012.4
20260903093105 26 178 3.2 8.0 0.00 3.05 0.00 94 1012.4
20260903092617 26 179 3.2 8.0 0.00 3.05 0.00 93 1012.4
20260903091618 26 168 6.4 14.5 0.00 3.05 0.00 93 1012.4
20260903091130 26 168 9.7 14.5 0.00 3.05 0.00 93 1012.4
20260903090635 26 157 8.0 11.3 0.00 3.05 0.00 93 1012.4
20260903090105 26 171 6.4 9.7 0.00 3.05 0.00 93 1012.4
20260903085614 26 180 6.4 9.7 0.00 3.05 0.00 93 1012.3
20260903084553 26 182 6.4 11.3 0.00 3.05 0.00 93 1012.3
20260903084058 26 182 8.0 12.9 0.00 3.05 0.00 93 1012.2
20260903083057 26 179 6.4 12.9 0.00 3.05 0.00 93 1012.2
20260903082609 26 182 8.0 14.5 0.00 3.05 0.00 93 1012.2
20260903082113 26 182 8.0 14.5 0.00 3.05 0.00 93 1012.2
20260903081544 26 157 9.7 14.5 0.00 3.05 0.00 93 1012.2
20260903081055 26 169 9.7 14.5 0.00 3.05 0.00 93 1012.2
20260903080118 26 159 9.7 14.5 0.00 3.05 0.00 92 1012.1
20260903075608 26 188 9.7 16.1 0.00 3.05 0.00 92 1012.1
20260903075107 26 167 12.9 17.7 0.00 3.05 0.00 92 1012.0
20260903074538 26 180 12.9 17.7 0.00 3.05 0.00 92 1012.0
20260903074044 26 173 12.9 19.3 0.00 3.05 0.00 92 1012.0
20260903073113 26 170 12.9 16.1 0.00 3.05 0.00 92 1011.9
20260903072616 26 194 11.3 16.1 0.00 3.05 0.00 92 1011.9
20260903072132 26 180 12.9 19.3 0.00 3.05 0.00 92 1011.8
20260903071552 26 194 11.3 19.3 0.00 3.05 0.00 91 1011.9
20260903071103 26 179 12.9 19.3 0.00 3.05 0.00 91 1011.9
20260903070105 27 191 14.5 22.5 0.00 3.05 0.00 91 1011.9
20260903065554 27 169 17.7 25.7 0.00 3.05 0.00 91 1012.0
20260903065044 27 163 17.7 27.4 0.00 3.05 0.00 91 1012.0
20260903064537 27 168 19.3 27.4 0.00 3.05 0.00 91 1012.1
20260903064048 27 162 14.5 22.5 0.00 3.05 0.00 91 1012.1
20260903063558 27 170 14.5 20.9 0.00 3.05 0.00 91 1012.1
20260903063050 26 178 14.5 22.5 0.00 3.05 0.00 92 1012.2
20260903062540 26 159 16.1 24.1 0.00 3.05 0.00 92 1012.2
20260903062050 26 180 11.3 19.3 0.00 3.05 0.00 93 1012.2
20260903061543 26 165 11.3 22.5 0.00 3.05 0.00 93 1012.2
20260903061038 26 155 14.5 22.5 0.00 3.05 0.00 93 1012.2
20260903060550 26 149 12.9 22.5 0.00 3.05 0.00 93 1012.2
20260903060043 26 157 14.5 19.3 0.00 3.05 0.00 93 1012.2
20260903055554 26 160 12.9 20.9 0.00 3.05 0.00 93 1012.2
20260903055039 25 161 16.1 20.9 0.00 3.05 0.00 93 1012.2
20260903054535 25 148 11.3 20.9 0.00 3.05 0.00 93 1012.2
20260903054046 25 149 14.5 20.9 0.00 3.05 0.00 93 1012.2
20260903053536 25 141 12.9 17.7 0.00 3.05 0.00 92 1012.3
20260903053055 25 154 11.3 19.3 0.00 3.05 0.00 92 1012.3
20260903052543 25 146 12.9 19.3 0.00 3.05 0.00 92 1012.3
20260903052052 25 126 12.9 19.3 0.00 3.05 0.00 92 1012.3
20260903051551 25 150 12.9 19.3 0.00 3.05 0.00 92 1012.3
20260903051102 25 159 14.5 19.3 0.00 3.05 0.00 92 1012.2
20260903050544 25 154 14.5 25.7 0.00 3.05 0.00 91 1012.2
20260903050104 25 153 17.7 25.7 0.00 3.05 0.00 91 1012.2
20260903045610 25 153 19.3 25.7 0.00 3.05 3.05 91 1012.3
20260903045109 25 133 17.7 25.7 0.00 3.05 3.05 91 1012.4
20260903044541 25 173 19.3 24.1 0.00 3.05 3.05 91 1012.4
20260903044053 25 137 16.1 24.1 0.00 3.05 3.05 91 1012.4
20260903043115 25 147 14.5 22.5 0.03 3.05 3.05 91 1012.7
20260903042558 25 164 16.1 25.7 0.03 3.05 3.05 91 1012.8
20260903041632 25 144 14.5 19.3 0.03 3.05 3.05 90 1012.8
20260903041137 25 153 14.5 17.7 0.03 3.05 3.05 90 1012.8
20260903040629 25 178 12.9 16.1 0.03 3.05 3.05 89 1012.9
20260903040054 25 155 9.7 24.1 0.05 3.05 3.05 89 1013.0
20260903035559 25 176 12.9 24.1 0.05 3.05 3.05 89 1013.0
20260903035151 26 169 11.3 19.3 0.05 3.05 3.05 88 1013.0
20260903034558 26 180 12.9 20.9 0.05 3.05 3.05 90 1013.2
20260903034103 26 190 12.9 17.7 0.05 3.05 3.05 91 1013.4
20260903033127 26 167 12.9 17.7 0.05 3.05 3.05 93 1013.2
20260903032541 26 188 12.9 17.7 0.03 3.02 3.02 93 1013.2
20260903032132 26 185 9.7 17.7 0.03 3.02 3.02 92 1013.2
20260903031551 26 171 11.3 17.7 0.03 3.02 3.02 92 1013.1
20260903031102 26 157 11.3 17.7 0.03 3.02 3.02 92 1013.3
20260903030042 26 139 8.0 16.1 0.03 3.02 3.02 91 1013.4
20260903025552 26 137 9.7 16.1 0.03 3.02 3.02 91 1013.3
20260903024614 26 142 8.0 12.9 0.05 3.00 3.00 90 1013.0
20260903024106 26 134 6.4 14.5 0.38 3.00 3.00 89 1012.8
20260903023125 26 90 4.8 8.0 1.65 3.00 3.00 87 1013.0
20260903022627 27 223 0.0 4.8 2.21 3.00 3.00 86 1012.8
20260903022122 27 224 0.0 1.6 2.90 3.00 3.00 86 1012.7
20260903021549 27 223 0.0 1.6 3.00 3.00 3.00 85 1012.7
20260903021054 27 223 0.0 6.4 3.00 3.00 3.00 85 1012.5
20260903020123 26 223 3.2 14.5 3.00 3.00 3.00 88 1012.4
20260903015605 26 209 6.4 19.3 3.00 3.00 3.00 88 1012.1
20260903014627 26 113 8.0 19.3 3.00 3.00 3.00 87 1011.8
20260903014043 26 91 12.9 19.3 2.77 2.77 2.77 86 1012.0
20260903013100 28 135 3.2 16.1 1.93 1.93 1.93 79 1011.9
20260903012547 29 318 0.0 19.3 1.35 1.35 1.35 75 1011.7
20260903011608 31 337 0.0 14.5 0.10 0.10 0.10 68 1011.1
20260903011120 31 77 4.8 17.7 0.00 0.00 0.00 67 1010.7
20260903010122 31 71 16.1 27.4 0.00 0.00 0.00 65 1010.4
20260903005634 32 66 17.7 27.4 0.00 0.00 0.00 62 1010.1
20260903005113 33 67 11.3 22.5 0.00 0.00 0.00 57 1010.0
20260903004545 35 78 11.3 19.3 0.00 0.00 0.00 55 1009.9
20260903004049 35 188 1.6 11.3 0.00 0.00 0.00 53 1009.8
20260903003119 35 191 6.4 14.5 0.00 0.00 0.00 53 1009.6
20260903002624 35 198 8.0 16.1 0.00 0.00 0.00 53 1009.7
20260903001624 35 194 12.9 14.5 0.00 0.00 0.00 52 1009.6
20260903001036 35 150 9.7 14.5 0.00 0.00 0.00 51 1009.5
20260903000058 36 160 6.4 12.9 0.00 0.00 0.00 48 1009.5
20260902235613 36 200 3.2 8.0 0.00 0.00 0.00 48 1009.6
20260902235108 36 200 4.8 8.0 0.00 0.00 0.00 48 1009.6
20260902234540 36 211 3.2 6.4 0.00 0.00 0.00 47 1009.7
20260902234051 36 213 3.2 8.0 0.00 0.00 0.00 47 1009.7
20260902233113 36 217 1.6 8.0 0.00 0.00 0.00 48 1009.6
20260902232556 36 121 1.6 16.1 0.00 0.00 0.00 48 1009.6
20260902231621 36 200 3.2 12.9 0.00 0.00 0.00 47 1009.7
20260902231044 36 167 3.2 8.0 0.00 0.00 0.00 48 1009.7
20260902230114 36 115 4.8 9.7 0.00 0.00 0.00 48 1009.7
20260902225604 36 124 1.6 9.7 0.00 0.00 0.00 49 1009.8
20260902224625 36 96 3.2 9.7 0.00 0.00 0.00 49 1009.7
20260902224137 36 61 3.2 9.7 0.00 0.00 0.00 48 1009.7
20260902223118 36 347 3.2 8.0 0.00 0.00 0.00 48 1009.8
20260902222630 36 333 3.2 11.3 0.00 0.00 0.00 48 1009.8
20260902222132 36 333 4.8 12.9 0.00 0.00 0.00 48 1009.8
20260902221558 36 207 8.0 17.7 0.00 0.00 0.00 47 1009.6
20260902221103 36 224 6.4 20.9 0.00 0.00 0.00 47 1009.6
20260902220135 36 189 9.7 16.1 0.00 0.00 0.00 47 1009.6
20260902215538 36 202 11.3 16.1 0.00 0.00 0.00 47 1009.8
20260902214557 37 248 11.3 17.7 0.00 0.00 0.00 47 1009.8
20260902214047 37 202 8.0 16.1 0.00 0.00 0.00 47 1009.8
20260902213109 37 229 11.3 24.1 0.00 0.00 0.00 47 1009.9
20260902212620 37 211 12.9 24.1 0.00 0.00 0.00 47 1009.9
20260902212124 37 208 14.5 24.1 0.00 0.00 0.00 47 1010.0
20260902211555 36 201 11.3 17.7 0.00 0.00 0.00 48 1010.1
20260902211107 36 239 11.3 20.9 0.00 0.00 0.00 49 1010.1
20260902210107 36 177 6.4 16.1 0.00 0.00 0.00 48 1010.2
20260902205549 37 209 6.4 12.9 0.00 0.00 0.00 48 1010.2
20260902204612 36 198 9.7 16.1 0.00 0.00 0.00 49 1010.4
20260902204055 36 242 8.0 14.5 0.00 0.00 0.00 48 1010.5
20260902203057 36 263 4.8 14.5 0.00 0.00 0.00 50 1010.5
20260902202612 36 209 9.7 14.5 0.00 0.00 0.00 50 1010.6
20260902201634 36 229 6.4 16.1 0.00 0.00 0.00 50 1010.7
20260902201045 36 275 8.0 17.7 0.00 0.00 0.00 51 1010.7
20260902200108 36 226 4.8 14.5 0.00 0.00 0.00 51 1010.9
20260902195612 36 220 9.7 12.9 0.00 0.00 0.00 51 1011.0
20260902194621 36 207 8.0 20.9 0.00 0.00 0.00 50 1011.2
20260902194104 36 277 12.9 20.9 0.00 0.00 0.00 49 1011.3
20260902193616 36 296 8.0 20.9 0.00 0.00 0.00 50 1011.3
20260902193047 36 232 9.7 20.9 0.00 0.00 0.00 51 1011.5
20260902192649 36 236 9.7 24.1 0.00 0.00 0.00 51 1011.5
20260902191630 36 225 11.3 24.1 0.00 0.00 0.00 53 1011.7
20260902191041 35 243 8.0 19.3 0.00 0.00 0.00 53 1011.8
20260902190104 35 259 9.7 17.7 0.00 0.00 0.00 53 1011.9
20260902185547 35 275 9.7 20.9 0.00 0.00 0.00 54 1012.0
20260902184620 35 273 11.3 22.5 0.00 0.00 0.00 54 1012.2
20260902184124 35 276 12.9 22.5 0.00 0.00 0.00 54 1012.4
20260902183633 35 267 8.0 17.7 0.00 0.00 0.00 55 1012.4
20260902183100 35 240 9.7 24.1 0.00 0.00 0.00 55 1012.5
20260902182605 35 239 16.1 24.1 0.00 0.00 0.00 54 1012.6
20260902181626 34 232 1.6 14.5 0.00 0.00 0.00 58 1012.7
20260902181036 34 329 6.4 20.9 0.00 0.00 0.00 58 1012.8
20260902180648 34 289 11.3 20.9 0.00 0.00 0.00 55 1012.9
20260902180051 34 251 8.0 19.3 0.00 0.00 0.00 58 1013.1
20260902175603 34 273 8.0 19.3 0.00 0.00 0.00 60 1013.1
20260902175153 34 249 8.0 16.1 0.00 0.00 0.00 58 1013.3
20260902174555 34 240 4.8 19.3 0.00 0.00 0.00 60 1013.4
20260902174106 33 281 6.4 20.9 0.00 0.00 0.00 59 1013.5
20260902173606 33 274 12.9 20.9 0.00 0.00 0.00 59 1013.5
20260902173037 33 219 9.7 20.9 0.00 0.00 0.00 59 1013.7
20260902172550 33 195 12.9 20.9 0.00 0.00 0.00 60 1013.8
20260902172157 33 216 4.8 22.5 0.00 0.00 0.00 62 1013.8
20260902171603 33 281 9.7 24.1 0.00 0.00 0.00 62 1013.9
20260902171112 33 221 14.5 25.7 0.00 0.00 0.00 62 1014.0
20260902170554 33 264 17.7 25.7 0.00 0.00 0.00 61 1014.1
20260902170040 33 251 11.3 22.5 0.00 0.00 0.00 62 1014.1
20260902165546 33 270 14.5 22.5 0.00 0.00 0.00 62 1014.2
20260902165147 33 246 12.9 20.9 0.00 0.00 0.00 63 1014.2
20260902164558 32 223 14.5 25.7 0.00 0.00 0.00 64 1014.3
20260902164110 32 276 11.3 25.7 0.00 0.00 0.00 64 1014.2
20260902163611 32 225 11.3 22.5 0.00 0.00 0.00 63 1014.4